User: anonymous   Login
Location: Unspecified
(0.0000°N, 0.0000°E)
Time: 21:51:44
(UTC+00:00)
Language:

STARLINK-4040 - Orbit

View from above orbital plane
View from above orbital plane
View from above satellite
View from above satellite

Ground track
Ground track

The orbit is defined by the following mean orbital elements,

1 53151U          26145.37422678 +.00000000 +00000-0 -73497-4 0 00000
2 53151  53.2114 179.8743 0001756  83.5870 276.5322 15.08845636    05
Epoch (UTC): 25 May 2026 08:58:53
Eccentricity: 0.0001756
inclination: 53.2114°
perigee height: 539 km
apogee height: 541 km
right ascension of ascending node: 179.8743°
argument of perigee: 83.5870°
revolutions per day: 15.08845636
mean anomaly at epoch: 276.5322°

The dashed part of the orbit path shows where the satellite is in the earth's shadow,  

DLR